Location: Bakhuizen
(52.8696°N, 5.4575°E)
Time: 18:33:51
(UTC+00:00)

Cosmos 1538 Rocket - Pass Details

Date: 11 May 2021
Orbit: 752 x 792 km, 74.0° (Epoch: 20 June)

Event Time Altitude Azimuth Distance (km) Brightness Sun altitude
Rises 20:05:29 0° 335° (NNW) 3,303 8.7 -5.9°
Reaches altitude 10° 20:07:57 10° 339° (NNW) 2,368 7.7 -6.2°
Maximum altitude 20:13:16 58° 59° (ENE) 921 4.4 -6.8°
Drops below altitude 10° 20:18:31 10° 138° (SE) 2,335 5.8 -7.4°
Enters shadow 20:18:44 - 139° (SE) 2,421 5.9 -7.4°
